KE4PKT Weather Reports


time (UTC)temp
C
wind
direction
speed
KPH
gust
KPH
rain 1hr
cm
rain 24hr
cm
rain mn
cm
humidity
%
barometer
mb
20260903054621 22 0 0.0 0.0 0.00 0.00 0.00 94 1017.5
20260903053041 22 0 0.0 0.0 0.00 0.00 0.00 94 1017.7
20260903051602 22 0 0.0 0.0 0.00 0.00 0.00 94 1017.6
20260903050105 22 0 0.0 0.0 0.00 0.00 0.00 94 1017.6
20260903044556 22 0 0.0 0.0 0.00 0.00 0.00 94 1017.5
20260903043124 23 0 0.0 0.0 0.00 0.00 0.00 93 1017.5
20260903041609 23 0 0.0 0.0 0.00 0.00 0.00 93 1017.5
20260903040055 23 0 0.0 0.0 0.00 0.00 0.00 92 1017.4
20260903034542 23 0 0.0 0.0 0.00 0.00 0.00 92 1017.6
20260903033049 23 0 0.0 0.0 0.00 0.00 0.00 91 1017.6
20260903031605 23 0 0.0 0.0 0.00 0.00 0.00 90 1017.5
20260903030042 24 0 0.0 0.0 0.00 0.00 0.00 89 1017.6
20260903024547 24 0 0.0 0.0 0.00 0.00 0.00 88 1017.6
20260903023130 24 0 0.0 0.0 0.00 0.00 0.00 87 1017.6
20260903023047 24 0 0.0 0.0 0.00 0.00 0.00 87 1017.6
20260903021558 25 0 0.0 0.0 0.00 0.00 0.00 85 1017.6
20260903020044 25 0 0.0 0.0 0.00 0.00 0.00 84 1017.7
20260903014638 25 0 0.0 0.0 0.00 0.00 0.00 83 1017.7
20260903013100 26 0 0.0 0.0 0.00 0.00 0.00 81 1017.5
20260903011602 27 0 0.0 0.0 0.00 0.00 0.00 79 1017.5
20260903010105 28 0 0.0 0.0 0.00 0.00 0.00 76 1017.2
20260903004656 28 0 0.0 0.0 0.00 0.00 0.00 74 1017.1
20260903003105 30 0 0.0 0.0 0.00 0.00 0.00 71 1017.0
20260903001545 31 0 0.0 0.0 0.00 0.00 0.00 69 1016.9
20260903000059 32 0 0.0 0.0 0.00 0.00 0.00 66 1016.9
20260902234551 33 0 0.0 0.0 0.00 0.00 0.00 61 1017.0
20260902233048 34 0 0.0 0.0 0.00 0.00 0.00 57 1017.1
20260902231551 35 0 0.0 0.0 0.00 0.00 0.00 56 1017.1
20260902230121 35 0 0.0 0.0 0.00 0.00 0.00 56 1017.2
20260902224615 35 0 0.0 0.0 0.00 0.00 0.00 55 1017.2
20260902223113 35 0 0.0 0.0 0.00 0.00 0.00 55 1017.1
20260902221549 35 0 0.0 0.0 0.00 0.00 0.00 51 1017.3
20260902220058 35 0 0.0 0.0 0.00 0.00 0.00 51 1017.3
20260902214625 35 0 0.0 0.0 0.00 0.00 0.00 51 1017.4
20260902213057 35 0 0.0 0.0 0.00 0.00 0.00 50 1017.3
20260902211556 35 0 0.0 0.0 0.00 0.00 0.00 52 1017.3
20260902210046 35 0 0.0 0.0 0.00 0.00 0.00 52 1017.5
20260902204620 35 0 0.0 0.0 0.00 0.00 0.00 51 1017.5
20260902203049 35 0 0.0 0.0 0.00 0.00 0.00 53 1017.6
20260902201557 35 0 0.0 0.0 0.00 0.00 0.00 57 1017.7
20260902200050 35 0 0.0 0.0 0.00 0.00 0.00 55 1017.8
20260902194625 35 0 0.0 0.0 0.00 0.00 0.00 54 1018.1
20260902194550 35 0 0.0 0.0 0.00 0.00 0.00 54 1018.1
20260902193104 35 0 0.0 0.0 0.00 0.00 0.00 55 1018.3
20260902191600 35 0 0.0 0.0 0.00 0.00 0.00 57 1018.3
20260902190049 34 0 0.0 0.0 0.00 0.00 0.00 56 1018.4
20260902184542 33 0 0.0 0.0 0.00 0.00 0.00 58 1018.5
20260902183103 35 0 0.0 0.0 0.00 0.00 0.00 57 1018.5
20260902181719 35 0 0.0 0.0 0.00 0.00 0.00 60 1018.6
20260902180046 33 0 0.0 0.0 0.00 0.00 0.00 59 1018.8
20260902174555 33 0 0.0 0.0 0.00 0.00 0.00 61 1019.0
20260902173050 33 0 0.0 0.0 0.00 0.00 0.00 57 1019.3
20260902171618 33 0 0.0 0.0 0.00 0.00 0.00 61 1019.4
20260902170104 33 0 0.0 0.0 0.00 0.00 0.00 63 1019.5
20260902164646 33 0 0.0 0.0 0.00 0.00 0.00 60 1019.6
20260902163047 32 0 0.0 0.0 0.00 0.00 0.00 63 1019.8
20260902161542 32 0 0.0 0.0 0.00 0.00 0.00 66 1019.8
20260902160050 31 0 0.0 0.0 0.00 0.00 0.00 69 1020.0
20260902154549 31 0 0.0 0.0 0.00 0.00 0.00 69 1020.1
20260902153227 31 0 0.0 0.0 0.00 0.00 0.00 70 1020.1
20260902151602 31 0 0.0 0.0 0.00 0.00 0.00 74 1020.1
20260902150053 30 0 0.0 0.0 0.00 0.00 0.00 75 1020.2
20260902144659 29 0 0.0 0.0 0.00 0.00 0.00 76 1020.1
20260902143051 29 0 0.0 0.0 0.00 0.00 0.00 78 1020.0
20260902141548 28 0 0.0 0.0 0.00 0.00 0.00 78 1020.0
20260902140044 28 0 0.0 0.0 0.00 0.00 0.00 81 1019.9
20260902134600 27 0 0.0 0.0 0.00 0.00 0.00 84 1019.9
20260902133057 25 0 0.0 0.0 0.00 0.00 0.00 91 1019.9
20260902131556 24 0 0.0 0.0 0.00 0.00 0.00 98 1020.0
20260902130108 23 0 0.0 0.0 0.00 0.00 0.00 98 1019.9
20260902124616 22 0 0.0 0.0 0.00 0.00 0.00 98 1019.8
20260902123048 21 0 0.0 0.0 0.00 0.00 0.00 98 1019.6
20260902121543 21 0 0.0 0.0 0.00 0.00 0.00 98 1019.5
20260902120048 20 0 0.0 0.0 0.00 0.00 0.00 97 1019.5
20260902114617 20 0 0.0 0.0 0.00 0.00 0.00 97 1019.4
20260902113053 20 0 0.0 0.0 0.00 0.00 0.00 97 1019.3
20260902111550 20 0 0.0 0.0 0.00 0.00 0.00 97 1019.2
20260902110049 20 0 0.0 0.0 0.00 0.00 0.00 97 1019.1
20260902104609 20 0 0.0 0.0 0.00 0.00 0.00 96 1019.1
20260902103106 20 0 0.0 0.0 0.00 0.00 0.00 97 1018.8
20260902101552 20 0 0.0 0.0 0.00 0.00 0.00 97 1018.8
20260902100049 20 0 0.0 0.0 0.00 0.00 0.00 96 1018.6
20260902094557 20 0 0.0 0.0 0.00 0.00 0.00 96 1018.6
20260902093100 20 0 0.0 0.0 0.00 0.00 0.00 96 1018.6
20260902091612 20 0 0.0 0.0 0.00 0.00 0.00 96 1018.6
20260902090047 21 0 0.0 0.0 0.00 0.00 0.00 96 1018.5
20260902084551 21 0 0.0 0.0 0.00 0.00 0.00 96 1018.4
20260902083114 21 0 0.0 0.0 0.00 0.00 0.00 97 1018.4
20260902081547 21 0 0.0 0.0 0.00 0.00 0.00 96 1018.3
20260902080121 21 0 0.0 0.0 0.00 0.00 0.00 96 1018.2
20260902074549 21 0 0.0 0.0 0.00 0.00 0.00 96 1018.3
20260902073102 21 0 0.0 0.0 0.00 0.00 0.00 96 1018.4
20260902071605 21 0 0.0 0.0 0.00 0.00 0.00 96 1018.2
20260902070136 21 0 0.0 0.0 0.00 0.00 0.00 95 1018.2
20260902064559 21 0 0.0 0.0 0.00 0.00 0.00 95 1018.3
20260902063101 21 0 0.0 0.0 0.00 0.00 0.00 95 1018.3
20260902061602 21 0 0.0 0.0 0.00 0.00 0.00 95 1018.4